#datint,netname,site,siteID,timestamp,IntT,BattV,AirT2,AirT,AirT_Avg,AirT_Max,AirT_Min,RH_Avg,RH_Max,RH_Min,EA_Avg,Td_Avg,Td_Max,Td_Min,WindS_Smp,WindS_Avg,WindD_Avg,WindD_SD,WindS_Max,ETo,ETr,SoilT4,SoilT8,SoilVWC8,SolarW_Avg,wetstate_Avg,wetT_Avg,Precip_accum,Precip_WPG,Precip_TB
15min,AgWx,beryljct,423,24MAY2018:01:00:00,52.5,13.02,50.7,49.7,50.7,51.8,49.1,42,47,40,0.514,28.7,29.6,27.7,4.341,5.3,174,4.2,7.1,0.00026,0.00036,63.1,63.1,14,0,0,49.2,13.89,0.00,0.00
15min,AgWx,beryljct,423,24MAY2018:01:15:00,51.5,13.02,48.6,46.4,48.7,49.7,46.4,45,53,41,0.574,28.0,30.5,26.8,3.266,5.0,169,5.2,6.0,0.00021,0.00030,62.9,63.0,14,0,0,47.3,13.89,0.00,0.00
15min,AgWx,beryljct,423,24MAY2018:01:30:00,50.3,13,45.7,46.3,45.5,46.3,44.6,54,59,47,0.503,29.8,31.6,27.3,3.617,1.3,180,2.9,3.8,-0.00013,-0.00016,62.6,63.0,14,0,0,43.6,13.89,0.00,0.00
15min,AgWx,beryljct,423,24MAY2018:01:45:00,49.4,13,47.7,48.0,47.2,49.1,46.2,48,51,46,0.573,28.6,30.8,27.1,4.099,4.2,189,8.9,6.2,0.00013,0.00020,62.4,62.9,14,0,0,45.1,13.89,0.00,0.00
15min,AgWx,beryljct,423,24MAY2018:02:00:00,49.0,12.99,48.5,47.0,48.3,49.9,46.8,51,58,46,0.619,31.1,33.0,29.6,0.68,3.0,196,2.1,5.1,0.00004,0.00008,62.1,62.8,14,0,0,46.4,13.89,0.00,0.00
15min,AgWx,beryljct,423,24MAY2018:02:15:00,48.5,12.98,48.9,48.1,48.5,49.2,47.2,49,56,46,0.546,30.4,32.4,28.9,2.324,1.4,191,68,2.8,-0.00011,-0.00014,61.9,62.8,14,0,0,45.4,13.89,0.00,0.00
15min,AgWx,beryljct,423,24MAY2018:02:30:00,47.7,12.97,43.0,41.4,43.5,48.0,41.4,59,67,48,0.582,30.2,31.9,28.4,0,0.9,8.3,8.4,3.6,-0.00017,-0.00024,61.7,62.7,14,0,0,42.2,13.89,0.00,0.00
15min,AgWx,beryljct,423,24MAY2018:02:45:00,46.7,12.96,43.6,42.0,43.1,45.0,41.3,62,73,54,0.649,30.8,33.6,27.7,1.776,1.2,312,26,4.4,-0.00015,-0.00020,61.4,62.6,14,0,0,41.3,13.90,0.00,0.00
15min,AgWx,beryljct,423,24MAY2018:03:00:00,45.9,12.95,45.4,44.0,44.9,46.8,42.4,61,71,51,0.673,32.1,34.5,28.5,1.315,0.9,292,0.2,2.6,-0.00018,-0.00024,61.2,62.5,14,0,0,41.6,13.90,0.00,0.00
15min,AgWx,beryljct,423,24MAY2018:03:15:00,45.1,12.95,44.3,43.6,44.0,45.0,43.0,64,71,58,0.610,32.8,34.4,31.2,1.052,0.5,292,0.0,1.4,-0.00022,-0.00033,61.0,62.5,14,0,0,40.3,13.90,0.00,0.00
15min,AgWx,beryljct,423,24MAY2018:03:30:00,44.4,12.94,43.2,43.2,42.9,44.3,41.8,67,71,59,0.594,32.5,33.5,30.8,1.929,0.4,292,0.0,2.3,-0.00023,-0.00034,60.7,62.4,14,0,0,39.6,13.90,0.00,0.00
15min,AgWx,beryljct,423,24MAY2018:03:45:00,43.9,12.92,42.5,41.9,42.3,43.3,41.3,59,64,54,0.520,29.1,30.7,27.2,0.504,1.2,295,1.5,2.6,-0.00014,-0.00018,60.5,62.3,14,0,0,39.5,13.90,0.00,0.00
15min,AgWx,beryljct,423,24MAY2018:04:00:00,43.4,12.92,43.0,43.0,42.5,43.4,41.3,55,61,49,0.515,27.4,28.9,25.5,1.644,1.1,296,0.7,2.2,-0.00014,-0.00019,60.3,62.2,14,0,0,39.8,13.90,0.00,0.00
15min,AgWx,beryljct,423,24MAY2018:04:15:00,43.2,12.89,43.1,42.3,42.8,44.3,41.2,54,60,49,0.507,27.1,28.3,25.8,1.973,2.8,323,7.9,3.6,0.00001,0.00004,60.0,62.1,14,0,0,41.1,13.90,0.00,0.00
15min,AgWx,beryljct,423,24MAY2018:04:30:00,42.7,12.91,40.3,40.2,40.2,42.2,39.6,65,69,55,0.542,29.5,30.5,27.4,0.438,0.8,326,0.0,1.9,-0.00018,-0.00025,59.8,62.0,14,0,0,38.5,13.90,0.00,0.00
15min,AgWx,beryljct,423,24MAY2018:04:45:00,42.4,12.89,42.6,39.3,42.2,44.3,39.3,56,65,47,0.529,27.3,29.6,25.4,1.71,2.8,349,20,5.0,-0.00000,0.00002,59.6,61.9,14,0,0,40.2,13.90,0.00,0.00
15min,AgWx,beryljct,423,24MAY2018:05:00:00,41.9,12.89,38.2,38.3,38.0,39.2,37.5,63,68,57,0.455,26.6,28.4,24.5,2.674,1.8,352,0.1,3.4,-0.00009,-0.00011,59.3,61.8,14,0,0,37.3,13.90,0.00,0.00
15min,AgWx,beryljct,423,24MAY2018:05:15:00,41.2,12.89,38.9,37.9,38.5,39.6,37.5,62,67,56,0.501,26.5,27.7,25.0,4.428,2.7,351,6.0,4.4,-0.00003,-0.00002,59.1,61.7,14,0,0,37.1,13.90,0.00,0.00
15min,AgWx,beryljct,423,24MAY2018:05:30:00,40.5,12.88,37.2,36.3,37.0,38.0,36.0,65,69,62,0.471,26.5,27.2,25.2,3.573,3.9,319,2.2,5.3,0.00001,0.00004,58.9,61.6,14,0,0,36.4,13.90,0.00,0.00
15min,AgWx,beryljct,423,24MAY2018:05:45:00,39.7,12.86,36.3,36.4,35.9,36.4,35.6,68,72,64,0.468,26.2,27.4,25.1,0.965,1.7,318,0.1,3.7,0.00011,0.00019,58.6,61.5,14,0,0,35.5,13.90,0.00,0.00
15min,AgWx,beryljct,423,24MAY2018:06:00:00,38.9,12.86,36.0,34.8,35.7,37.4,34.7,69,74,59,0.477,26.5,27.7,24.1,0.767,1.4,296,28,3.4,0.00009,0.00015,58.4,61.4,14,0,0,35.3,13.90,0.00,0.00
15min,AgWx,beryljct,423,24MAY2018:06:15:00,38.3,12.87,36.8,36.6,36.2,37.5,34.7,64,69,60,0.478,25.2,26.1,24.4,2.543,1.7,190,56,5.1,0.00013,0.00021,58.2,61.3,14,2,0,35.6,13.90,0.00,0.00
15min,AgWx,beryljct,423,24MAY2018:06:30:00,37.8,12.86,34.3,33.4,34.3,36.4,33.1,78,84,66,0.536,28.0,29.0,26.1,2.192,1.8,64,17,4.8,0.00012,0.00018,58.0,61.2,14,11,0,35.8,13.90,0.00,0.00
15min,AgWx,beryljct,423,24MAY2018:06:45:00,37.6,12.89,36.9,37.9,35.9,37.9,33.3,70,83,61,0.474,26.9,28.7,25.6,0.417,1.2,284,0.1,2.3,0.00026,0.00032,57.7,61.1,14,40,0,40.2,13.90,0.00,0.00
15min,AgWx,beryljct,423,24MAY2018:07:00:00,38.0,12.91,36.6,36.8,36.4,38.2,35.7,76,82,61,0.581,29.5,30.9,25.7,0.811,0.7,285,0.4,1.8,0.00036,0.00041,57.5,61.0,14,78,0,49.1,13.90,0.00,0.00
15min,AgWx,beryljct,423,24MAY2018:07:15:00,39.4,12.89,38.0,38.3,37.5,38.3,36.6,78,82,74,0.587,31.4,32.9,30.4,1.293,1.1,205,20,3.3,0.00052,0.00058,57.4,60.9,14,119,0,54.4,13.90,0.00,0.00
15min,AgWx,beryljct,423,24MAY2018:07:30:00,41.3,12.87,40.5,40.5,40.0,40.6,38.5,68,76,63,0.650,30.4,33.6,28.6,0.592,0.6,199,0.3,2.5,0.00071,0.00079,57.1,60.7,14,164,0,62.2,13.90,0.00,0.00
15min,AgWx,beryljct,423,24MAY2018:07:45:00,43.7,12.9,42.8,43.6,42.2,43.6,40.3,68,76,64,0.650,32.4,34.2,31.2,0.855,0.1,198,0.0,1.2,0.00093,0.00100,57.0,60.6,14,211,0,70.5,13.90,0.00,0.00
15min,AgWx,beryljct,423,24MAY2018:08:00:00,46.4,12.93,46.3,47.9,45.7,47.9,43.6,63,68,55,0.626,33.9,35.3,32.6,0,0.1,199,0.1,0.8,0.00121,0.00130,56.8,60.5,14,259,0,77.7,13.90,0.00,0.00
15min,AgWx,beryljct,423,24MAY2018:08:15:00,49.5,12.95,49.9,51.3,49.4,51.3,47.9,55,62,50,0.655,34.1,37.5,32.3,0,0.6,199,0.3,2.1,0.00156,0.00171,56.6,60.4,14,310,0,81.6,13.90,0.00,0.00
15min,AgWx,beryljct,423,24MAY2018:08:30:00,52.7,12.96,53.2,55.0,52.7,55.0,51.4,52,59,48,0.737,35.6,38.3,32.9,0.636,0.6,286,64,2.7,0.00193,0.00211,56.5,60.3,14,363,0,84.9,13.89,0.00,0.00
15min,AgWx,beryljct,423,24MAY2018:08:45:00,55.5,13.04,55.1,55.1,55.0,55.6,54.4,54,60,48,0.844,38.8,41.5,35.5,2.828,3.7,96,21,5.5,0.00240,0.00284,56.5,60.2,14,414,0,82.7,13.89,0.00,0.00
15min,AgWx,beryljct,423,24MAY2018:09:00:00,57.8,13.2,56.8,57.2,56.6,57.8,55.2,48,59,38,0.763,37.1,41.1,32.1,2.631,2.8,102,13,4.3,0.00273,0.00317,56.5,60.1,14,465,0,86.4,13.89,0.00,0.00
15min,AgWx,beryljct,423,24MAY2018:09:15:00,60.1,13.46,58.2,58.9,58.0,59.0,57.3,46,55,38,0.763,37.3,42.0,32.8,3.091,2.5,90,9.1,4.1,0.00305,0.00350,56.5,59.9,13,515,0,90.8,13.89,0.00,0.00
15min,AgWx,beryljct,423,24MAY2018:09:30:00,62.3,13.77,59.8,60.8,59.6,60.8,59.0,42,49,36,0.786,36.6,40.6,33.0,0.702,2.2,97,7.5,3.9,0.00340,0.00387,56.6,59.8,13,564,0,94.8,13.88,0.00,0.00
15min,AgWx,beryljct,423,24MAY2018:09:45:00,64.5,14.25,61.6,62.4,61.5,62.5,60.6,37,44,31,0.720,34.8,38.7,31.2,2.017,1.2,94,11,2.4,0.00370,0.00411,56.7,59.7,13,612,0,101.5,13.88,0.00,0.00
15min,AgWx,beryljct,423,24MAY2018:10:00:00,66.9,14.15,63.3,63.8,63.2,63.9,62.2,33,39,26,0.628,33.6,37.1,28.2,1.666,1.6,108,13,3.5,0.00410,0.00460,56.8,59.7,13,658,0,105.3,13.88,0.00,0.00
15min,AgWx,beryljct,423,24MAY2018:10:15:00,69.1,14.16,64.4,64.9,64.4,64.9,63.8,31,37,27,0.616,33.3,37.9,29.1,0,1.0,116,6.3,2.5,0.00437,0.00481,57.0,59.6,13,703,0,109.6,13.87,0.00,0.00
15min,AgWx,beryljct,423,24MAY2018:10:30:00,70.9,14.08,65.7,65.9,65.7,66.8,64.8,32,40,26,0.659,34.8,40.6,30.0,3.091,1.2,102,13,3.5,0.00472,0.00520,57.2,59.5,13,745,0,110.6,13.87,0.00,0.00
15min,AgWx,beryljct,423,24MAY2018:10:45:00,72.1,14.11,66.9,67.5,66.9,67.6,65.8,32,43,25,0.653,35.9,43.7,29.7,2.389,2.1,103,14,4.1,0.00511,0.00575,57.5,59.4,13,786,0,108.5,13.87,0.00,0.00
15min,AgWx,beryljct,423,24MAY2018:11:00:00,73.1,14.07,68.7,69.4,68.7,69.6,67.5,30,39,25,0.729,36.2,43.4,30.9,5.919,4.3,105,32,7.3,0.00561,0.00658,57.8,59.4,13,824,0,103.2,13.86,0.00,0.00
15min,AgWx,beryljct,423,24MAY2018:11:15:00,73.7,14.03,70.1,70.3,70.2,71.3,69.4,29,35,20,0.701,35.9,40.9,27.6,6.401,6.1,145,24,11.1,0.00606,0.00733,58.1,59.4,13,859,0,98.5,13.86,0.00,0.00
15min,AgWx,beryljct,423,24MAY2018:11:30:00,74.3,14.04,71.0,71.8,71.0,71.8,70.2,26,32,20,0.535,34.0,39.8,27.2,0,4.2,135,25,9.0,0.00620,0.00728,58.4,59.3,13,891,0,102.0,13.86,0.00,0.00
15min,AgWx,beryljct,423,24MAY2018:11:45:00,75.1,13.99,72.0,71.9,72.1,73.3,71.3,23,30,18,0.478,31.8,39.0,25.7,2.696,7.1,169,26,13.1,0.00672,0.00825,58.8,59.3,13,919,0,100.6,13.86,0.00,0.00
15min,AgWx,beryljct,423,24MAY2018:12:00:00,75.8,14,72.8,72.5,72.9,73.9,72.0,23,34,17,0.537,32.6,42.6,25.4,11.14,5.4,182,27,12.2,0.00678,0.00809,59.3,59.4,13,947,0,104.4,13.86,0.00,0.00
15min,AgWx,beryljct,423,24MAY2018:12:15:00,76.1,13.62,72.6,72.6,72.7,74.0,71.8,25,37,18,0.602,34.5,45.0,27.4,7.344,8.5,164,20,14.9,0.00712,0.00884,59.7,59.4,13,970,0,96.6,13.86,0.00,0.00
15min,AgWx,beryljct,423,24MAY2018:12:30:00,76.3,13.59,73.5,73.4,73.5,74.7,72.3,24,33,20,0.629,34.7,41.9,29.6,8.26,8.3,168,26,15.9,0.00730,0.00903,60.2,59.5,13,990,0,97.2,13.86,0.00,0.00
15min,AgWx,beryljct,423,24MAY2018:12:45:00,76.6,13.64,74.2,74.6,74.2,75.2,73.1,21,26,15,0.629,31.7,36.7,24.0,9.67,9.1,182,21,15.3,0.00755,0.00946,60.7,59.5,13,1005,0,97.0,13.86,0.00,0.00
15min,AgWx,beryljct,423,24MAY2018:13:00:00,77.1,13.57,74.4,74.7,74.5,75.5,73.4,23,31,16,0.763,33.9,41.7,26.1,9.34,7.2,171,22,13.0,0.00745,0.00910,61.2,59.6,13,1016,0,100.3,13.85,0.00,0.00
15min,AgWx,beryljct,423,24MAY2018:13:15:00,77.7,13.63,75.0,75.5,75.1,75.9,74.2,20,29,16,0.576,31.3,40.6,26.4,12.54,10.0,183,22,18.4,0.00782,0.00989,61.7,59.8,13,1024,0,98.0,13.86,0.00,0.00
15min,AgWx,beryljct,423,24MAY2018:13:30:00,78.0,13.56,75.7,76.2,75.8,76.3,74.9,19,26,15,0.555,30.1,37.4,24.5,10.59,10.8,200,21,18.3,0.00800,0.01024,62.3,59.9,13,1028,0,96.3,13.86,0.00,0.00
15min,AgWx,beryljct,423,24MAY2018:13:45:00,78.2,13.57,75.6,75.9,75.8,76.6,74.8,18,23,15,0.477,29.3,35.6,24.5,12.34,14.1,194,23,21.5,0.00829,0.01096,62.8,60.0,13,1028,0,93.2,13.86,0.00,0.00
15min,AgWx,beryljct,423,24MAY2018:14:00:00,78.4,13.56,76.3,76.1,76.5,77.3,76.0,16,22,12,0.544,26.5,34.4,20.5,11.64,15.8,193,12,21.9,0.00857,0.01153,63.4,60.2,13,1027,0,92.4,13.86,0.00,0.00
15min,AgWx,beryljct,423,24MAY2018:14:15:00,78.5,13.57,76.1,76.9,76.2,77.2,75.4,15,18,13,0.541,25.5,29.2,21.3,13.26,15.4,195,16,22.2,0.00848,0.01139,64.0,60.4,13,1020,0,92.1,13.86,0.00,0.00
15min,AgWx,beryljct,423,24MAY2018:14:30:00,78.6,13.64,76.5,77.3,76.6,77.3,76.0,15,18,13,0.527,25.8,29.5,22.7,16.24,16.7,192,12,23.1,0.00858,0.01165,64.5,60.6,13,1011,0,91.1,13.86,0.00,0.00
15min,AgWx,beryljct,423,24MAY2018:14:45:00,78.8,13.53,76.5,76.4,76.8,77.5,76.3,15,20,13,0.512,25.4,32.1,22.1,12.82,16.1,194,12,24.5,0.00848,0.01150,65.0,60.7,13,995,0,91.1,13.86,0.00,0.00
15min,AgWx,beryljct,423,24MAY2018:15:00:00,78.9,13.51,76.5,77.0,76.7,77.3,76.1,16,20,12,0.511,26.7,32.7,20.3,9.38,14.4,189,16,19.9,0.00819,0.01097,65.5,61.0,13,977,0,90.7,13.86,0.00,0.00
15min,AgWx,beryljct,423,24MAY2018:15:15:00,79.1,13.58,76.4,76.5,76.5,77.5,76.0,17,20,15,0.514,28.8,32.0,25.0,11.42,13.4,195,20,19.8,0.00789,0.01049,66.0,61.2,13,953,0,90.8,13.86,0.00,0.00
15min,AgWx,beryljct,423,24MAY2018:15:30:00,79.3,13.53,76.5,76.0,76.6,77.0,76.0,17,21,13,0.638,28.7,33.9,21.8,6.292,9.8,194,23,19.9,0.00739,0.00951,66.4,61.4,13,926,0,92.3,13.86,0.00,0.00
15min,AgWx,beryljct,423,24MAY2018:15:45:00,79.8,13.49,77.2,77.3,77.2,78.0,76.1,16,21,13,0.515,27.7,34.3,22.8,7.717,12.3,198,14,18.0,0.00754,0.01003,66.7,61.6,13,897,0,91.5,13.86,0.00,0.00
15min,AgWx,beryljct,423,24MAY2018:16:00:00,80.1,13.47,77.1,77.2,77.2,77.8,76.3,17,23,12,0.472,28.7,36.4,19.9,11.07,10.6,198,22,16.9,0.00714,0.00936,66.9,61.8,13,865,0,90.9,13.86,0.00,0.00
15min,AgWx,beryljct,423,24MAY2018:16:15:00,80.6,13.46,77.6,78.0,77.7,78.7,77.0,17,22,13,0.608,28.8,36.6,22.0,8.86,9.0,207,19,18.0,0.00663,0.00863,67.1,62.0,13,806,0,91.7,13.86,0.00,0.00
15min,AgWx,beryljct,423,24MAY2018:16:30:00,81.2,13.46,77.9,78.2,78.0,78.8,77.2,16,21,11,0.522,27.8,34.9,19.3,13.85,9.9,195,19,15.2,0.00643,0.00857,67.2,62.2,13,756,0,89.9,13.86,0.00,0.00
15min,AgWx,beryljct,423,24MAY2018:16:45:00,81.3,13.43,77.5,78.3,77.6,78.3,77.2,17,21,13,0.456,28.8,34.4,23.9,9.89,12.0,221,14,17.6,0.00667,0.00907,67.4,62.4,13,754,0,87.2,13.86,0.00,0.00
15min,AgWx,beryljct,423,24MAY2018:17:00:00,81.4,13.43,78.0,77.6,78.2,79.0,77.6,15,19,12,0.532,26.4,32.6,20.3,6.73,12.2,202,21,17.4,0.00654,0.00903,67.6,62.6,13,713,0,86.7,13.86,0.00,0.00
15min,AgWx,beryljct,423,24MAY2018:17:15:00,81.7,13.48,78.5,78.2,78.6,79.4,77.6,14,18,11,0.458,25.2,31.3,21.2,8.83,12.2,196,13,18.4,0.00621,0.00871,67.9,62.7,13,653,0,86.4,13.86,0.00,0.00
15min,AgWx,beryljct,423,24MAY2018:17:30:00,81.6,13.44,78.1,78.6,78.2,78.8,77.3,15,18,13,0.523,26.6,31.0,22.9,11.07,12.5,195,13,20.1,0.00601,0.00850,68.2,62.9,13,622,0,84.7,13.86,0.00,0.00
15min,AgWx,beryljct,423,24MAY2018:17:45:00,81.4,13.45,78.1,78.3,78.3,78.9,77.9,14,16,12,0.529,25.6,28.9,22.4,12.14,12.4,189,12,21.2,0.00573,0.00821,68.5,63.1,13,575,0,83.9,13.86,0.00,0.00
15min,AgWx,beryljct,423,24MAY2018:18:00:00,81.2,13.47,77.7,77.7,77.9,78.6,77.3,15,18,13,0.470,25.7,30.3,22.2,13.48,12.0,202,14,17.0,0.00533,0.00772,68.8,63.3,13,527,0,82.9,13.86,0.00,0.00
15min,AgWx,beryljct,423,24MAY2018:18:15:00,80.7,13.44,77.3,77.7,77.5,78.0,76.6,15,17,12,0.501,25.8,29.8,22.1,11.07,12.9,206,15,21.1,0.00513,0.00761,69.0,63.4,13,476,0,81.2,13.86,0.00,0.00
15min,AgWx,beryljct,423,24MAY2018:18:30:00,80.3,13.47,76.8,76.5,77.0,77.8,76.5,16,18,14,0.563,27.9,30.8,24.1,8.75,11.4,210,9.8,16.1,0.00453,0.00673,69.3,63.6,13,424,0,80.2,13.86,0.00,0.00
15min,AgWx,beryljct,423,24MAY2018:18:45:00,79.8,13.47,76.7,76.5,76.8,77.7,76.2,17,20,13,0.549,28.0,32.0,22.7,9.34,10.4,207,13,16.1,0.00401,0.00602,69.5,63.8,13,373,0,79.1,13.86,0.00,0.00
15min,AgWx,beryljct,423,24MAY2018:19:00:00,79.2,13.35,75.8,75.4,75.9,76.6,75.2,18,22,15,0.589,29.9,33.6,25.7,6.292,9.3,223,13,14.1,0.00342,0.00520,69.7,63.9,13,321,0,77.6,13.86,0.00,0.00
15min,AgWx,beryljct,423,24MAY2018:19:15:00,78.6,13.3,75.4,75.0,75.5,76.1,74.9,18,20,16,0.557,29.3,32.1,27.1,9.16,8.7,209,16,13.4,0.00297,0.00462,69.9,64.1,13,271,0,76.4,13.86,0.00,0.00
15min,AgWx,beryljct,423,24MAY2018:19:30:00,77.8,13.28,74.8,74.4,74.9,75.5,74.3,18,21,16,0.514,28.9,31.8,26.0,9.43,10.3,211,12,15.4,0.00295,0.00481,69.9,64.2,13,222,0,74.9,13.86,0.00,0.00
15min,AgWx,beryljct,423,24MAY2018:19:45:00,76.9,13.25,73.2,72.6,73.4,74.5,72.2,20,25,17,0.600,30.0,34.3,27.3,6.599,9.1,227,10,13.9,0.00237,0.00398,70.0,64.3,13,176,0,73.2,13.86,0.00,0.00
15min,AgWx,beryljct,423,24MAY2018:20:00:00,75.9,13.22,73.0,72.9,72.9,73.6,72.3,19,22,18,0.504,28.7,31.3,27.3,10.92,9.8,219,8.2,13.3,0.00140,0.00180,70.0,64.5,13,131,0,71.9,13.87,0.00,0.00
15min,AgWx,beryljct,423,24MAY2018:20:15:00,74.8,13.22,71.8,71.3,72.0,72.9,71.2,20,21,18,0.531,28.4,29.9,26.8,10.02,9.0,223,8.1,12.5,0.00122,0.00160,69.9,64.6,13,90,0,70.5,13.87,0.00,0.00
15min,AgWx,beryljct,423,24MAY2018:20:30:00,73.5,13.2,70.6,70.3,70.8,71.6,70.1,20,22,18,0.481,28.0,30.2,25.6,11.27,8.5,227,8.0,13.1,0.00106,0.00140,69.8,64.7,13,51,0,69.0,13.87,0.00,0.00
15min,AgWx,beryljct,423,24MAY2018:20:45:00,72.0,13.17,69.3,68.4,69.5,70.6,68.4,21,22,19,0.509,27.4,28.7,25.8,8.13,7.8,228,6.9,12.6,0.00089,0.00120,69.7,64.8,13,15,0,67.4,13.87,0.00,0.00
15min,AgWx,beryljct,423,24MAY2018:21:00:00,70.5,13.16,69.0,68.4,68.9,69.5,68.3,20,22,19,0.482,26.5,27.5,25.2,8.35,8.4,227,7.6,11.5,0.00091,0.00121,69.5,64.9,14,3,0,66.6,13.87,0.00,0.00
15min,AgWx,beryljct,423,24MAY2018:21:15:00,69.3,13.15,68.0,67.2,68.1,68.7,67.2,21,22,20,0.499,26.5,27.6,25.3,8.53,7.9,230,6.2,10.5,0.00083,0.00112,69.3,65.0,14,0,0,65.8,13.87,0.00,0.00
15min,AgWx,beryljct,423,24MAY2018:21:30:00,67.9,13.15,66.1,65.3,66.3,67.4,65.2,23,25,21,0.514,27.5,28.1,26.5,6.138,6.6,232,4.2,8.7,0.00066,0.00091,69.1,65.0,14,0,0,63.8,13.87,0.00,0.00
15min,AgWx,beryljct,423,24MAY2018:21:45:00,66.6,13.14,65.2,65.3,65.1,65.8,64.7,25,26,23,0.521,28.0,29.3,26.9,7.958,7.0,236,4.5,9.0,0.00066,0.00091,68.9,65.1,14,0,0,62.7,13.87,0.00,0.00
15min,AgWx,beryljct,423,24MAY2018:22:00:00,65.7,13.13,65.1,64.3,65.0,65.4,64.3,25,26,24,0.541,28.2,29.1,27.4,6.489,7.7,234,3.5,8.9,0.00072,0.00097,68.7,65.1,14,0,0,62.7,13.87,0.00,0.00
15min,AgWx,beryljct,423,24MAY2018:22:15:00,64.8,13.12,63.1,61.2,63.3,64.3,61.2,28,30,25,0.461,30.0,31.1,25.1,5.7,6.9,230,13,8.0,0.00059,0.00081,68.4,65.2,14,0,0,61.1,13.88,0.00,0.00
15min,AgWx,beryljct,423,24MAY2018:22:30:00,63.3,13.1,59.3,59.4,59.4,61.0,58.5,28,30,25,0.484,26.4,27.6,24.3,6.599,6.5,199,5.3,8.2,0.00051,0.00070,68.2,65.2,14,0,0,57.0,13.88,0.00,0.00
15min,AgWx,beryljct,423,24MAY2018:22:45:00,61.5,13.08,57.8,57.5,57.9,59.5,56.9,32,34,27,0.489,28.0,29.7,25.9,6.029,5.5,196,4.3,6.9,0.00038,0.00054,67.9,65.2,14,0,0,55.4,13.88,0.00,0.00
15min,AgWx,beryljct,423,24MAY2018:23:00:00,60.3,13.1,58.4,58.5,58.1,58.5,57.6,30,32,29,0.506,27.2,28.0,26.1,5.919,6.2,204,3.3,6.8,0.00045,0.00062,67.7,65.2,14,0,0,55.6,13.88,0.00,0.00
15min,AgWx,beryljct,423,24MAY2018:23:15:00,59.6,13.07,58.3,58.4,58.1,58.5,57.5,31,33,30,0.506,27.6,28.4,27.0,5.634,6.0,201,3.9,6.9,0.00043,0.00060,67.4,65.2,14,0,0,55.6,13.88,0.00,0.00
15min,AgWx,beryljct,423,24MAY2018:23:30:00,58.9,13.07,57.3,56.5,57.3,58.6,54.8,33,41,30,0.494,28.6,32.0,26.8,4.56,5.5,201,8.4,6.5,0.00036,0.00052,67.1,65.2,14,0,0,55.1,13.88,0.00,0.00
15min,AgWx,beryljct,423,24MAY2018:23:45:00,57.6,13.06,54.1,51.8,54.5,57.2,51.8,38,46,31,0.607,29.3,32.5,26.2,3.968,4.3,193,6.2,5.1,0.00022,0.00033,66.8,65.2,14,0,0,52.5,13.88,0.00,0.00
15min,AgWx,beryljct,423,25MAY2018:00:00:00,56.2,13.06,54.4,55.7,53.8,57.9,50.6,41,53,26,0.542,30.0,34.7,23.6,4.341,4.2,205,5.2,4.9,0.00019,0.00029,66.6,65.2,14,0,0,52.1,13.88,0.00,0.00
15min,AgWx,beryljct,423,25MAY2018:00:15:00,55.7,13.04,58.0,53.1,58.0,60.3,53.1,29,40,26,0.550,26.2,29.4,24.2,5.108,5.4,183,5.1,6.1,0.00039,0.00056,66.3,65.2,14,0,0,55.6,13.89,0.00,0.00
15min,AgWx,beryljct,423,25MAY2018:00:30:00,55.0,13.03,52.6,52.6,52.6,54.3,50.9,38,43,33,0.452,27.5,30.0,24.6,4.735,4.7,181,9.5,6.7,0.00024,0.00035,66.0,65.1,14,0,0,51.1,13.89,0.00,0.00
15min,AgWx,beryljct,423,25MAY2018:00:45:00,53.7,13.01,49.0,48.2,49.3,52.7,48.1,40,44,33,0.497,25.7,27.4,23.9,4.494,5.3,165,6.0,6.9,0.00025,0.00035,65.7,65.1,14,0,0,48.2,13.89,0.00,0.00
15min,AgWx,bigpiney,439,24MAY2018:01:00:00,47.9,12.78,44.2,43.5,43.6,44.3,43.1,90,91,88,0.872,40.7,41.5,40.2,2.28,2.2,231,24,3.2,-0.00017,-0.00023,54.0,50.5,54,0,0,0.0,.,0.00,0.00
15min,AgWx,bigpiney,439,24MAY2018:01:15:00,47.5,12.77,44.0,43.3,43.5,43.9,42.9,90,91,89,0.865,40.7,41.2,40.1,1.491,1.5,240,32,2.5,-0.00021,-0.00028,53.9,50.5,54,0,0,0.0,.,0.00,0.00
15min,AgWx,bigpiney,439,24MAY2018:01:30:00,46.9,12.77,44.8,44.4,43.9,44.4,43.3,88,91,87,0.865,40.6,41.1,39.9,0,0.4,211,23,1.5,-0.00026,-0.00040,53.7,50.6,54,0,0,0.0,.,0.00,0.00
15min,AgWx,bigpiney,439,24MAY2018:01:45:00,46.5,12.77,44.8,44.3,44.0,44.6,43.3,88,91,87,0.868,40.8,41.1,40.3,1.929,0.7,215,36,2.6,-0.00025,-0.00037,53.6,50.5,54,0,72,0.0,.,0.00,0.00
15min,AgWx,bigpiney,439,24MAY2018:02:00:00,46.1,12.76,41.5,41.3,42.5,44.3,41.3,89,92,87,0.787,39.6,40.9,38.3,2.389,1.9,207,50,3.1,-0.00018,-0.00024,53.5,50.5,54,0,100,0.0,.,0.00,0.00
15min,AgWx,bigpiney,439,24MAY2018:02:15:00,45.5,12.76,40.1,40.0,40.5,41.3,39.9,92,93,90,0.774,38.3,39.3,37.9,3.091,2.0,254,17,3.2,-0.00018,-0.00024,53.4,50.4,54,0,100,0.0,.,0.00,0.00
15min,AgWx,bigpiney,439,24MAY2018:02:30:00,44.9,12.75,39.9,39.9,40.1,41.8,39.4,92,95,90,0.774,38.1,40.4,37.2,2.916,2.9,228,17,4.5,-0.00015,-0.00019,53.3,50.4,54,0,100,0.0,.,0.00,0.00
15min,AgWx,bigpiney,439,24MAY2018:02:45:00,44.5,12.73,40.2,39.9,39.9,40.2,39.7,92,93,92,0.770,37.9,38.3,37.5,2.872,2.1,239,24,4.0,-0.00017,-0.00023,53.2,50.4,54,0,100,0.0,.,0.00,0.00
15min,AgWx,bigpiney,439,24MAY2018:03:00:00,44.1,12.72,39.1,39.0,39.5,40.0,39.0,92,93,92,0.751,37.4,37.9,37.0,1.184,1.7,257,25,2.7,-0.00019,-0.00025,53.0,50.4,54,0,100,0.0,.,0.00,0.00
15min,AgWx,bigpiney,439,24MAY2018:03:15:00,43.7,12.72,38.7,38.5,38.9,39.3,38.5,93,94,93,0.736,37.1,37.6,36.6,3.223,3.0,225,12,4.0,-0.00015,-0.00018,52.9,50.4,54,0,100,0.0,.,0.00,0.00
15min,AgWx,bigpiney,439,24MAY2018:03:30:00,43.4,12.71,39.6,39.2,38.7,39.2,38.5,93,94,93,0.759,36.9,37.5,36.6,4.297,4.5,226,8.9,6.0,-0.00011,-0.00013,52.7,50.4,54,0,100,0.0,.,0.00,0.00
15min,AgWx,bigpiney,439,24MAY2018:03:45:00,43.2,12.7,39.6,39.3,39.3,39.5,39.2,93,93,92,0.754,37.3,37.5,37.2,2.653,3.0,248,9.3,4.8,-0.00015,-0.00018,52.6,50.3,54,0,100,0.0,.,0.00,0.00
15min,AgWx,bigpiney,439,24MAY2018:04:00:00,43.1,12.67,40.4,39.7,39.5,39.8,39.3,92,93,92,0.771,37.5,37.9,37.2,3.069,2.1,267,35,3.2,-0.00017,-0.00023,52.5,50.3,54,0,100,0.0,.,0.00,0.00
15min,AgWx,bigpiney,439,24MAY2018:04:15:00,43.0,12.67,40.1,39.8,39.5,40.0,39.0,93,93,92,0.766,37.6,38.1,37.0,2.192,2.6,316,27,3.2,-0.00016,-0.00020,52.3,50.3,54,0,100,0.0,.,0.00,0.00
15min,AgWx,bigpiney,439,24MAY2018:04:30:00,42.9,12.66,41.0,40.5,40.2,40.5,39.7,92,92,91,0.779,38.0,38.3,37.6,0.921,0.7,234,22,2.1,-0.00024,-0.00035,52.2,50.3,54,0,100,0.0,.,0.00,0.00
15min,AgWx,bigpiney,439,24MAY2018:04:45:00,42.8,12.66,39.4,39.8,40.5,40.8,39.8,91,91,90,0.752,38.0,38.4,37.2,3.858,1.5,207,14,4.0,-0.00020,-0.00027,52.1,50.3,54,0,100,0.0,.,0.00,0.00
15min,AgWx,bigpiney,439,24MAY2018:05:00:00,42.6,12.64,38.1,37.9,38.3,39.8,37.8,92,93,89,0.718,36.2,37.2,35.9,3.946,3.0,213,14,4.1,-0.00014,-0.00018,51.9,50.2,54,0,100,0.0,.,0.00,0.00
15min,AgWx,bigpiney,439,24MAY2018:05:15:00,42.3,12.63,38.3,38.0,38.2,38.7,37.8,92,93,91,0.715,36.2,36.8,35.6,1.644,3.3,241,41,4.6,-0.00014,-0.00016,51.8,50.2,54,0,100,0.0,.,0.00,0.00
15min,AgWx,bigpiney,439,24MAY2018:05:30:00,42.0,12.61,38.9,38.3,37.9,38.3,37.6,93,94,92,0.734,35.9,36.6,35.5,2.28,1.5,227,18,2.3,-0.00019,-0.00026,51.7,50.2,54,0,100,0.0,.,0.00,0.00
15min,AgWx,bigpiney,439,24MAY2018:05:45:00,41.8,12.61,37.9,37.4,38.3,39.3,37.3,93,94,91,0.699,36.4,37.8,35.0,2.346,2.2,247,71,4.5,-0.00017,-0.00022,51.5,50.1,54,1,100,0.0,.,0.00,0.00
15min,AgWx,bigpiney,439,24MAY2018:06:00:00,41.5,12.62,36.4,36.4,37.3,37.8,36.4,94,94,93,0.682,35.6,36.1,34.8,2.192,2.0,124,58,4.3,-0.00016,-0.00021,51.4,50.1,54,6,100,0.0,.,0.00,0.00
15min,AgWx,bigpiney,439,24MAY2018:06:15:00,41.2,12.63,37.8,37.3,36.7,37.3,36.3,94,95,94,0.716,35.3,36.0,34.6,1.074,2.1,221,20,3.3,-0.00031,-0.00032,51.2,50.0,54,22,100,0.0,.,0.00,0.00
15min,AgWx,bigpiney,439,24MAY2018:06:30:00,41.1,12.63,38.2,37.9,37.8,38.5,37.3,95,95,94,0.730,36.4,37.2,36.0,1.535,0.6,358,35,2.2,-0.00019,-0.00020,51.1,50.0,54,38,100,0.0,.,0.00,0.00
15min,AgWx,bigpiney,439,24MAY2018:06:45:00,41.3,12.64,39.6,38.9,38.3,38.9,37.9,95,95,94,0.764,37.0,37.6,36.4,0.11,1.1,19,21,2.8,0.00002,0.00003,51.0,50.0,54,54,100,0.0,.,0.00,0.00
15min,AgWx,bigpiney,439,24MAY2018:07:00:00,41.9,12.62,40.5,40.0,39.5,40.1,38.8,94,95,93,0.780,37.9,38.5,37.5,0,0.5,110,28,2.1,0.00016,0.00018,50.8,49.9,54,65,100,0.0,.,0.00,0.00
15min,AgWx,bigpiney,439,24MAY2018:07:15:00,42.7,12.62,40.2,39.9,40.0,40.1,39.9,93,93,92,0.768,38.0,38.2,37.7,1.425,0.8,152,43,2.4,0.00020,0.00023,50.7,49.9,54,36,100,0.0,.,0.00,0.00
15min,AgWx,bigpiney,439,24MAY2018:07:30:00,43.3,12.72,40.7,40.4,40.2,40.6,39.8,92,93,91,0.776,38.1,38.5,37.7,1.71,1.1,197,17,2.2,0.00033,0.00037,50.6,49.8,54,71,100,0.0,.,0.00,0.00
15min,AgWx,bigpiney,439,24MAY2018:07:45:00,43.9,12.79,41.8,41.5,41.1,41.8,40.4,91,92,91,0.816,38.8,39.6,38.0,3.223,2.0,207,9.8,4.2,0.00048,0.00054,50.4,49.8,54,111,100,0.0,.,0.00,0.00
15min,AgWx,bigpiney,439,24MAY2018:08:00:00,44.4,12.83,43.6,43.0,41.8,43.2,41.3,92,93,91,0.865,39.6,40.9,39.0,2.653,2.3,204,15,3.7,0.00083,0.00090,50.3,49.8,54,216,100,0.0,.,0.00,0.00
15min,AgWx,bigpiney,439,24MAY2018:08:15:00,45.8,12.82,44.2,44.3,43.7,44.5,42.9,88,92,86,0.846,40.4,41.3,39.6,0.811,0.9,205,58,2.9,0.00159,0.00171,50.2,49.7,54,385,100,0.0,.,0.00,0.00
15min,AgWx,bigpiney,439,24MAY2018:08:30:00,47.7,12.93,45.4,45.3,45.1,45.7,44.1,86,88,84,0.880,41.1,42.3,39.8,2.17,1.4,60,31,3.3,0.00183,0.00198,50.1,49.7,54,425,58,0.0,.,0.00,0.00